Regional Weather Roundup
Issued by NWS

Home | Current Version | Previous Version | Graphics & Text | Print | Product List | Glossary Off
Versions: 1 2 3 4 5 6 7 8 9 10 11 12 13 14 15 16 17 18 19 20 21 22 23 24 25 26 27 28 29 30 31 32 33 34 35 36 37 38 39 40 41 42 43 44 45 46 47 48 49 50

000
ASUS43 KMKX 190900
RWRWI

WISCONSIN REGIONAL WEATHER ROUNDUP
NATIONAL WEATHER SERVICE MILWAUKEE/SULLIVAN WI
300 AM CST FRI DEC 19 2014

NOTE: "FAIR" INDICATES FEW OR NO CLOUDS BELOW 12,000 FEET WITH NO
SIGNIFICANT WEATHER AND/OR OBSTRUCTIONS TO VISIBILITY.

WIZ001-002-006>008-014>016-023>028-191000-
NORTHWEST WISCONSIN

CITY           SKY/WX    TMP DP  RH WIND       PRES   REMARKS
SUPERIOR ARPT  CLOUDY    23  20  89 W3        30.28S
ASHLAND        CLOUDY    22  19  89 CALM      30.28F
HAYWARD        CLOUDY    22  18  85 SW7       30.25S WCI  13
SIREN          CLOUDY    22  19  85 SW5       30.27S WCI  16
CUMBERLAND     CLOUDY    21  19  93 S6        30.25S WCI  14
RICE LAKE      CLOUDY    23  20  91 S6        30.28S WCI  15
CHETEK         CLOUDY    22  19  88 S3        30.27S
LADYSMITH      CLOUDY    24  22  91 SW3       30.27R
EAU CLAIRE     CLOUDY    24  19  81 SW5       30.28R WCI  18
MENOMONIE      CLOUDY    25  20  83 SW6       30.28S WCI  18
NEW RICHMOND   CLOUDY    22  19  89 S6        30.27F WCI  14
OSCEOLA        CLOUDY    23  19  85 S7        30.30F WCI  14
$$

WIZ003>005-009-010-017-018-191000-
NORTH CENTRAL WISCONSIN

CITY           SKY/WX    TMP DP  RH WIND       PRES   REMARKS
MANITOWISH WTR CLOUDY     6   3  90 CALM      30.23S
ARBOR VITAE    PTCLDY     5   1  85 CALM      30.23S FOG
WOODRUFF       PTCLDY     5   1  85 CALM      30.23S FOG
RHINELANDER    CLOUDY     2   0  91 CALM      30.23S FOG
EAGLE RIVER    PTCLDY     2  -2  81 CALM      30.23S
LAND O LAKES   PTCLDY    -4  -8  83 CALM      30.24R
PHILLIPS       CLOUDY    17  15  93 CALM      30.23S
TOMAHAWK       CLEAR      7   4  88 CALM      30.25R
MEDFORD        CLOUDY    21  19  91 CALM      30.23S
MERRILL        CLEAR     10   8  92 CALM      30.25S
$$

WIZ029-030-035-036-043>047-191000-
CENTRAL WISCONSIN

CITY           SKY/WX    TMP DP  RH WIND       PRES   REMARKS
WAUSAU         CLEAR     16  13  88 NW5       30.24S WCI   9
MOSINEE        CLEAR     18  18 100 NW3       30.26S
MARSHFIELD     CLOUDY    24  19  81 CALM      30.25S
STEVENS POINT  CLEAR     10   8  89 CALM      30.27S
WAUPACA        CLEAR     17  13  88 CALM      30.28S
WAUTOMA        NOT AVBL
WISC RAPIDS    CLOUDY    22  18  85 CALM      30.28S
CAMP DOUGLAS   NOT AVBL
$$

WIZ011>013-019>022-031-037>040-048>050-191000-
NORTHEAST WISCONSIN

CITY           SKY/WX    TMP DP  RH WIND       PRES   REMARKS
ANTIGO         CLEAR      9   8  92 CALM      30.24S
SHAWANO        CLEAR     17  15  89 CALM      30.29R
OCONTO         CLEAR     17  17  99 CALM      30.29S
STURGEON BAY   MOCLDY    19  12  73 CALM      30.28S
GREEN BAY      CLEAR     18  16  92 CALM      30.28S
MANITOWOC      NOT AVBL
APPLETON       CLEAR     18  18 100 W8        30.27S WCI   7
CLINTONVILLE   CLEAR     18  14  86 CALM      30.28R
OSHKOSH        CLEAR     19  16  88 W5        30.27S WCI  12
$$

WIZ032>034-041-042-053>061-191000-
SOUTHWEST WISCONSIN

CITY           SKY/WX    TMP DP  RH WIND       PRES   REMARKS
LA CROSSE      CLOUDY    26  18  71 CALM      30.30S
SPARTA         CLOUDY    25  20  83 CALM      30.30S
VIROQUA        CLOUDY    23  19  87 CALM      30.26R
BOSCOBEL       CLOUDY    26  18  71 NW3       30.31R
PRAIRIE DU CHI CLOUDY    26  18  72 CALM      30.31R
PLATTEVILLE    CLOUDY    24  19  82 CALM      30.29R
$$

WIZ056-057-062-063-064-067-068-191000-
SOUTH CENTRAL WISCONSIN

CITY           SKY/WX    TMP DP  RH WIND       PRES   REMARKS
REEDSBURG      CLOUDY    24  20  84 CALM      30.28R
BARABOO/DELLS  CLOUDY    25  20  82 CALM      30.27S
LONE ROCK      NOT AVBL
MINERAL POINT  CLOUDY    27  21  80 CALM      30.26S
MADISON        CLOUDY    26  20  77 NW5       30.27S WCI  20
MIDDLETON      CLOUDY    27  22  80 CALM      30.28S
WATERTOWN      CLOUDY    25  23  89 N3        30.27S
MONROE         CLOUDY    27  23  86 CALM      30.26S
JANESVILLE     CLOUDY    28  23  80 CALM      30.28R
$$

WIZ051-052-058>065-066-070>072-191000-
SOUTHEAST WISCONSIN

CITY           SKY/WX    TMP DP  RH WIND       PRES   REMARKS
MILWAUKEE      CLOUDY    28  19  69 NW9       30.27S WCI  19
WAUKESHA       CLOUDY    25  21  86 NW6       30.28R WCI  18
MILWAUKEE/TIMM CLOUDY    27  19  74 NW7       30.28S WCI  19
RACINE         CLOUDY    27  20  75 W6        30.28S WCI  20
BURLINGTON     CLOUDY    25  20  82 W3        30.28S
KENOSHA        CLOUDY    27  21  78 NW7       30.27R WCI  19
FOND DU LAC    CLEAR     17  13  84 CALM      30.28S
SHEBOYGAN      CLOUDY    22  17  81 NW6       30.26S WCI  14
WEST BEND      CLEAR     19  18  93 CALM      30.26S
JUNEAU         CLOUDY    20  18  93 CALM      30.28S
$$

LSZ147-162-191000-
LAKE SUPERIOR

STATION/POSITION TIME  TEMP    WIND        PRES    WAVE
                       AIR SEA DIR/SP/G            HT/PER
                 (UTC) (F)     (DEG/KT/KT) (MB)    (FT/S)
DEVILS ISLAND    0800   25     210/  5/  7 1026.6R
PORT WING        0840   23     170/  3/  4 1025.4S
SAXON HARBOR     0800   17        CALM     1025.7R
$$

LMZ867-665-643>646-191000-
LAKE MICHIGAN

STATION/POSITION TIME  TEMP    WIND        PRES    WAVE
                       AIR SEA DIR/SP/G            HT/PER
                 (UTC) (F)     (DEG/KT/KT) (MB)    (FT/S)
CHAMBERS ISLAND  0800   25     310/  6/  9 1025.4R
NORTHPORT PIER   0804   27      20/  5/  8 1024.7R
SISTER BAY       0813             CALM       N/A
ALGOMA LAKESHORE 0814          330/  7/  8   N/A
KEWAUNEE LAKESHO 0800   23     310/  5/  9 1023.9R
SHEBOYGAN LAKESH 0800   25 34  280/  9/ 10 1026.1R
PORT WASHINGTON  0840   24     290/  5/  7 1026.1R
MILWAUKEE LAKESH 0800   28     310/  8/ 11   N/A
KENOSHA   LAKESH 0800   28     280/  8/ 10 1025.1R
$$

TC  - TEMPERATURE IN CELSIUS
VSB - VISIBILITY IN STATUTE MILES
WCI - WIND CHILL INDEX
HX  - HEAT INDEX




USA.gov is the U.S. government's official web portal to all federal, state and local government web resources and services.